Regional Weather Roundup
Issued by NWS Green Bay, WI

Home | Current Version | Previous Version | Graphics & Text | Print | Product List | Glossary Off
Versions: 1 2 3 4 5 6 7 8 9 10 11 12 13 14 15 16 17 18 19 20 21 22 23 24 25 26 27 28 29 30 31 32 33 34 35 36 37 38 39 40 41 42 43 44 45 46 47 48 49 50

000
ASUS43 KGRB 301400
RWRGRB

NORTH-CENTRAL AND NORTHEAST WISCONSIN REGIONAL WEATHER ROUNDUP
NATIONAL WEATHER SERVICE GREEN BAY WI
900 AM CDT THU JUL 30 2015

WIZ005-009-010>012-018-019-301500-
NORTH CENTRAL WISCONSIN

CITY           SKY/WX    TMP DP  RH WIND       PRES   REMARKS
IRONWOOD       SUNNY     70  57  64 W15G23    29.90S
MANITOWISH WTR NOT AVBL
ARBOR VITAE    NOT AVBL
EAGLE RIVER    NOT AVBL
LAND O LAKES   NOT AVBL
RHINELANDER    SUNNY     70  56  61 W14       29.97R
PHILLIPS       NOT AVBL
ANTIGO         NOT AVBL
TOMAHAWK       NOT AVBL
MERRILL        NOT AVBL
$$

WIZ013-073-301500-
NORTHEAST WISCONSIN

CITY           SKY/WX    TMP DP  RH WIND       PRES   REMARKS
IRON MOUNTAIN  SUNNY     73  55  53 NW15G23   29.88R
MARINETTE      SUNNY     72  55  56 W8G18     29.90R
$$

WIZ017-030-035>037-045-301500-
CENTRAL WISCONSIN

CITY           SKY/WX    TMP DP  RH WIND       PRES   REMARKS
MEDFORD        NOT AVBL
WAUSAU         SUNNY     72  57  59 W16       29.97S
MOSINEE        NOT AVBL
MARSHFIELD     SUNNY     72  57  59 W9        30.01R
WISC RAPIDS    SUNNY     73  55  53 W12       30.02R
STEVENS POINT  NOT AVBL
WAUPACA        NOT AVBL
SHAWANO        NOT AVBL
CLINTONVILLE   NOT AVBL
$$

WIZ038-039-048-051-301500-
FOX VALLEY

CITY           SKY/WX    TMP DP  RH WIND       PRES   REMARKS
NWS GREEN BAY  SUNNY     73  59  61 W12       29.96R
APPLETON       SUNNY     72  55  56 W13       29.99R
OSHKOSH        SUNNY     74  57  55 W10G18    29.99R
FOND DU LAC    SUNNY     74  58  57 W9        30.00S
$$

WIZ022-050-052-301500-
EAST CENTRAL WISCONSIN

CITY           SKY/WX    TMP DP  RH WIND       PRES   REMARKS
STURGEON BAY   SUNNY     72  55  56 W14G21    29.94S
MANITOWOC      NOT AVBL
SHEBOYGAN      SUNNY     74  59  59 W14       29.98S
$$

LMZ563-521-522-541>543-301500-
LAKESHORE

STATION/POSITION TIME  TEMP    WIND        PRES    VSBY  WAVE
                       AIR SEA DIR/SP/G                  HT/PER
                 (UTC) (F)     (DEG/KT/KT) (MB)    (MI)  (FT/S)
SHEBOYGAN LKSHOR 1300   71     260/ 11/ 13 1014.9R
KEWAUNEE LKSHORE 1300   71     280/  9/ 13 1013.0
ALGOMA MARINA    1312          310/  7/ 12   N/A
NORTHPORT PIER   1300   71     270/  6/ 15 1011.5S
N MID LAKE BUOY  1250   70 69  260/ 19/ 23 1010.2R         3/ 4
SISTER BAY LKSHO 1314   74     290/ 19/ 21   N/A
CHAMBERS ISLAND  1300   69     220/  6/ 12 1012.2R
MENOMINEE LKSHOR 1300   70     240/ 10/ 16 1013.2
$$



USA.gov is the U.S. government's official web portal to all federal, state and local government web resources and services.